Pleasant Lake, IN

3:15 AM EST on February 08, 2016 (GMT -0500)
Tri-State Steuben County

Weather History for KANQ - May, 2014

Change the Weather History Date:

Sunday, May 25, 2014

  Actual Average (KFWA) Record (KFWA)
Temperature  
Mean Temperature 66 °F 63 °F  
Max Temperature 82 °F 74 °F 95 °F (1911)
Min Temperature 51 °F 52 °F 33 °F (1925)
Degree Days  
Heating Degree Days 0 4  
Month to date heating degree days 171  
Since 1 July heating degree days 6053  
Cooling Degree Days 2 2  
Month to date cooling degree days 31  
Year to date cooling degree days 39  
Growing Degree Days 16 (Base 50)    
Moisture  
Dew Point 53 °F    
Average Humidity 66    
Maximum Humidity 100    
Minimum Humidity 37    
Precipitation  
Precipitation 0.00 in 0.16 in 3.46 in (2011)
Month to date precipitation 3.28  
Year to date precipitation 13.81  
Snow  
Snow 0.00 in 0.00 in 0.00 in (2002)
Month to date snowfall 0.0  
Since 1 July snowfall 33.5  
Snow Depth -    
Sea Level Pressure  
Sea Level Pressure 30.14 in    
Wind  
Wind Speed 1 mph (SW)    
Max Wind Speed 9 mph    
Max Gust Speed -    
Visibility 10 miles    
Events      
T = Trace of Precipitation, MM = Missing Value Source: NWS Daily Summary

Daily Weather History Graph

Daily Weather History Graph

Search for Another Location

Airport or City:

Trip Planner

Search our weather history database for the weather conditions in past years. The results will help you decide how hot, cold, wet, or windy it might be!

Date:

Astronomy

May. 25, 2014 Rise Set
Actual Time 6:12 AM EDT 9:02 PM EDT
Civil Twilight 5:39 AM EDT 9:35 PM EDT
Nautical Twilight 4:58 AM EDT 10:16 PM EDT
Astronomical Twilight 4:11 AM EDT 11:04 PM EDT
Moon 4:19 AM EDT (5/25) 6:00 PM EDT (5/25)
Length of Visible Light 15h 55m
Length of Day
14h 50m
Waning Crescent, 10% of the Moon is Illuminated
May 25
Waning Crescent
May 28
New
Jun 5
First Quarter
Jun 13
Full
Jun 19
Last Quarter

Hourly Weather History & Observations

Time (EDT) Temp. Heat Index Dew Point Humidity Pressure Visibility Wind Dir Wind Speed Gust Speed Precip Events Conditions
12:15 AM 55.4 °F - 53.6 °F 94% 30.16 in 10.0 mi Calm Calm - N/A   Clear
12:35 AM 55.4 °F - 53.6 °F 94% 30.17 in 10.0 mi Calm Calm - N/A   Clear
12:55 AM 55.4 °F - 53.6 °F 94% 30.16 in 10.0 mi Calm Calm - N/A   Clear
1:15 AM 55.4 °F - 53.6 °F 94% 30.16 in 10.0 mi Calm Calm - N/A   Clear
1:35 AM 53.6 °F - 51.8 °F 94% 30.16 in 10.0 mi Calm Calm - N/A   Clear
1:55 AM 53.6 °F - 51.8 °F 94% 30.16 in 10.0 mi Calm Calm - N/A   Clear
2:15 AM 53.6 °F - 53.6 °F 100% 30.16 in 10.0 mi Calm Calm - N/A   Clear
2:35 AM 53.6 °F - 53.6 °F 100% 30.16 in 10.0 mi Calm Calm - N/A   Clear
2:55 AM 53.6 °F - 51.8 °F 94% 30.16 in 10.0 mi Calm Calm - N/A   Clear
3:15 AM 53.6 °F - 51.8 °F 94% 30.16 in 8.0 mi Calm Calm - N/A   Clear
3:35 AM 53.6 °F - 51.8 °F 94% 30.16 in 10.0 mi Calm Calm - N/A   Clear
4:15 AM 53.6 °F - 51.8 °F 94% 30.16 in 10.0 mi Calm Calm - N/A   Clear
4:35 AM 53.6 °F - 51.8 °F 94% 30.16 in 10.0 mi Calm Calm - N/A   Clear
4:55 AM 53.6 °F - 51.8 °F 94% 30.16 in 10.0 mi Calm Calm - N/A   Clear
5:15 AM 51.8 °F - 51.8 °F 100% 30.16 in 10.0 mi Calm Calm - N/A   Clear
5:35 AM 51.8 °F - 51.8 °F 100% 30.16 in 10.0 mi Calm Calm - N/A   Clear
5:55 AM 51.8 °F - 51.8 °F 100% 30.16 in 10.0 mi Calm Calm - N/A   Clear
6:35 AM 51.8 °F - 51.8 °F 100% 30.18 in 7.0 mi Calm Calm - N/A   Clear
6:55 AM 51.8 °F - 51.8 °F 100% 30.18 in 2.0 mi Calm Calm - N/A   Clear
7:15 AM 53.6 °F - 51.8 °F 94% 30.18 in 3.0 mi Calm Calm - N/A   Clear
7:35 AM 55.4 °F - 53.6 °F 94% 30.18 in 8.0 mi Calm Calm - N/A   Clear
7:55 AM 57.2 °F - 55.4 °F 94% 30.18 in 10.0 mi Calm Calm - N/A   Clear
8:15 AM 60.8 °F - 57.2 °F 88% 30.18 in 10.0 mi Calm Calm - N/A   Clear
8:35 AM 62.6 °F - 53.6 °F 72% 30.18 in 10.0 mi Calm Calm - N/A   Clear
8:55 AM 66.2 °F - 55.4 °F 68% 30.18 in 10.0 mi Calm Calm - N/A   Clear
9:15 AM 66.2 °F - 53.6 °F 64% 30.18 in 10.0 mi Calm Calm - N/A   Clear
9:35 AM 68.0 °F - 55.4 °F 64% 30.18 in 10.0 mi Calm Calm - N/A   Clear
9:55 AM 69.8 °F - 53.6 °F 56% 30.18 in 10.0 mi Variable 3.5 mph - N/A   Clear
10:15 AM 71.6 °F - 53.6 °F 53% 30.18 in 10.0 mi Calm Calm - N/A   Clear
10:35 AM 73.4 °F - 53.6 °F 50% 30.18 in 10.0 mi Calm Calm - N/A   Clear
10:55 AM 73.4 °F - 51.8 °F 47% 30.18 in 10.0 mi SSW 5.8 mph - N/A   Clear
11:15 AM 75.2 °F - 51.8 °F 44% 30.18 in 10.0 mi South 4.6 mph - N/A   Clear
11:35 AM 75.2 °F - 51.8 °F 44% 30.18 in 10.0 mi South 3.5 mph - N/A   Clear
11:55 AM 75.2 °F - 51.8 °F 44% 30.18 in 10.0 mi South 8.1 mph - N/A   Clear
12:15 PM 75.2 °F - 51.8 °F 44% 30.18 in 10.0 mi South 6.9 mph - N/A   Clear
12:35 PM 77.0 °F - 51.8 °F 41% 30.17 in 10.0 mi SW 6.9 mph - N/A   Clear
12:55 PM 75.2 °F - 51.8 °F 44% 30.16 in 10.0 mi SW 5.8 mph - N/A   Clear
1:15 PM 78.8 °F - 53.6 °F 42% 30.15 in 10.0 mi WSW 6.9 mph - N/A   Clear
1:35 PM 78.8 °F - 53.6 °F 42% 30.15 in 10.0 mi Variable 5.8 mph - N/A   Clear
1:55 PM 78.8 °F - 53.6 °F 42% 30.15 in 10.0 mi SW 9.2 mph - N/A   Clear
2:15 PM 78.8 °F - 51.8 °F 39% 30.15 in 10.0 mi Variable 5.8 mph - N/A   Clear
2:35 PM 78.8 °F - 51.8 °F 39% 30.14 in 10.0 mi SW 5.8 mph - N/A   Clear
2:55 PM 80.6 °F - 51.8 °F 37% 30.14 in 9.0 mi Calm Calm - N/A   Clear
3:15 PM 78.8 °F - 53.6 °F 42% 30.13 in 10.0 mi SW 5.8 mph - N/A   Clear
3:35 PM 80.6 °F 80.3 °F 53.6 °F 39% 30.13 in 10.0 mi SW 5.8 mph - N/A   Clear
3:55 PM 80.6 °F 80.3 °F 53.6 °F 39% 30.12 in 10.0 mi West 4.6 mph - N/A   Clear
4:15 PM 80.6 °F - 51.8 °F 37% 30.12 in 10.0 mi WNW 3.5 mph - N/A   Clear
4:35 PM 80.6 °F 80.3 °F 53.6 °F 39% 30.11 in 10.0 mi West 4.6 mph - N/A   Clear
4:55 PM 80.6 °F - 51.8 °F 37% 30.11 in 10.0 mi WSW 4.6 mph - N/A   Clear
5:15 PM 80.6 °F 80.3 °F 53.6 °F 39% 30.11 in 10.0 mi West 6.9 mph - N/A   Clear
5:35 PM 80.6 °F - 51.8 °F 37% 30.10 in 10.0 mi South 3.5 mph - N/A   Clear
5:55 PM 80.6 °F 80.3 °F 53.6 °F 39% 30.10 in 10.0 mi WSW 5.8 mph - N/A   Clear
6:15 PM 82.4 °F 81.4 °F 53.6 °F 37% 30.09 in 10.0 mi WSW 6.9 mph - N/A   Clear
6:35 PM 80.6 °F - 51.8 °F 37% 30.09 in 10.0 mi WSW 6.9 mph - N/A   Clear
6:55 PM 80.6 °F - 51.8 °F 37% 30.08 in 10.0 mi Calm Calm - N/A   Clear
7:15 PM 80.6 °F - 51.8 °F 37% 30.08 in 10.0 mi Calm Calm - N/A   Clear
7:35 PM 80.6 °F - 51.8 °F 37% 30.07 in 10.0 mi WSW 3.5 mph - N/A   Clear
7:55 PM 78.8 °F - 51.8 °F 39% 30.07 in 10.0 mi SW 3.5 mph - N/A   Clear
8:15 PM 78.8 °F - 55.4 °F 44% 30.08 in 10.0 mi SW 3.5 mph - N/A   Clear
8:35 PM 75.2 °F - 57.2 °F 53% 30.08 in 10.0 mi Calm Calm - N/A   Clear
8:55 PM 73.4 °F - 59.0 °F 61% 30.08 in 10.0 mi Calm Calm - N/A   Clear
9:15 PM 69.8 °F - 59.0 °F 68% 30.08 in 10.0 mi Calm Calm - N/A   Clear
9:35 PM 68.0 °F - 57.2 °F 68% 30.08 in 10.0 mi Calm Calm - N/A   Clear
9:55 PM 64.4 °F - 55.4 °F 73% 30.08 in 10.0 mi Calm Calm - N/A   Clear
10:35 PM 62.6 °F - 57.2 °F 82% 30.09 in 10.0 mi Calm Calm - N/A   Clear
10:55 PM 62.6 °F - 57.2 °F 82% 30.09 in 10.0 mi Calm Calm - N/A   Clear
11:15 PM 62.6 °F - 55.4 °F 77% 30.09 in 10.0 mi Calm Calm - N/A   Clear
11:35 PM 60.8 °F - 57.2 °F 88% 30.09 in 10.0 mi Calm Calm - N/A   Clear
11:55 PM 60.8 °F - 55.4 °F 82% 30.09 in 10.0 mi Calm Calm - N/A   Clear